Wind_Speed
16 14 13 12 10 9 8 8 7 7 7 8 8 8 9 9 10 10 10 11 11 11 12 12 12 12 13 13 13 13 13 14 14 14 15 15 15 15 15 16 16 16 16
16 15 14 13 11 10 9 8 8 8 8 8 8 9 10 10 11 11 11 11 11 11 12 12 13 13 13 13 13 13 14 14 14 14 15 15 16 16 16 16 16 16 16
17 16 14 13 12 10 10 9 9 8 8 9 9 10 10 10 11 10 10 11 11 12 12 13 13 14 14 14 14 14 15 15 15 15 15 16 16 16 17 17 17 16 16
18 16 15 13 12 11 10 10 9 9 9 9 10 10 10 10 10 10 11 11 12 12 13 13 14 14 14 15 15 15 15 16 16 16 16 16 16 16 17 17 16 16 16
18 17 15 14 12 11 11 10 10 10 10 10 10 10 11 11 11 11 11 12 12 13 13 14 14 15 15 15 15 15 16 16 16 16 16 16 16 16 16 16 16 16 16
19 18 16 15 13 12 12 11 11 11 11 11 11 11 11 11 12 12 12 13 13 13 14 14 14 15 15 15 15 15 16 16 16 16 16 16 16 16 16 16 16 16 16
21 19 18 16 15 14 13 13 13 13 12 12 12 12 12 12 13 13 13 13 14 14 14 14 15 15 15 15 15 15 16 16 16 16 16 16 16 16 15 15 15 15 15
23 21 19 18 17 16 15 14 14 14 14 14 14 14 14 14 14 14 14 14 15 15 15 15 15 15 15 15 15 15 16 16 16 16 16 15 15 15 15 15 15 15 15
24 23 21 20 19 18 17 16 16 16 16 15 15 15 15 16 16 16 15 15 15 15 15 15 15 16 16 16 16 16 16 17 16 16 16 16 15 15 15 15 15 15 15
26 25 24 23 22 21 20 19 18 18 17 17 17 17 17 17 17 17 16 16 16 16 16 17 17 17 17 17 17 17 17 17 17 16 16 16 16 16 16 16 15 16 16
28 27 26 25 24 23 22 21 20 19 19 18 18 18 18 18 18 18 18 18 18 17 18 18 18 18 18 18 18 18 18 19 18 18 17 17 17 17 17 17 17 17 17
31 29 28 27 26 25 24 23 22 21 20 19 19 18 19 19 19 19 19 19 19 19 19 19 19 20 20 20 19 19 20 20 20 20 19 19 19 19 19 19 18 18 18
33 32 31 30 28 27 26 25 24 23 22 21 20 19 20 20 20 20 20 20 20 20 20 20 21 21 21 22 21 21 21 22 22 22 22 22 21 21 21 21 20 20 20
35 34 33 32 30 29 28 27 26 24 23 22 22 21 21 21 22 22 22 22 22 22 22 22 22 23 24 24 24 24 24 24 24 24 24 24 24 24 23 23 23 22 22
37 36 34 33 32 31 30 28 27 26 25 24 24 23 23 23 23 23 23 23 23 24 24 24 24 24 25 26 27 27 27 26 26 27 27 27 27 27 26 26 26 25 25
38 37 36 35 34 32 31 30 29 28 27 26 26 25 25 25 25 24 24 25 25 25 25 26 26 26 27 28 29 30 30 30 29 30 30 30 30 30 30 29 29 28 28
40 39 38 37 35 34 33 32 31 30 29 28 28 28 27 27 27 26 26 26 27 27 27 28 29 29 30 30 31 32 32 32 32 33 33 33 33 33 33 32 32 32 31
41 40 39 38 37 35 34 33 33 32 31 30 30 29 29 29 28 28 28 28 29 29 29 30 31 32 32 33 34 35 35 35 35 36 36 36 37 37 36 36 36 35 35
42 41 40 39 38 37 36 35 34 33 32 32 31 31 31 31 30 30 30 30 31 31 31 32 33 34 35 36 37 37 38 38 38 38 39 39 39 40 40 40 39 39 38
43 42 41 40 39 38 37 36 35 35 34 33 33 33 33 32 32 32 32 32 33 33 34 34 35 36 37 38 39 39 40 40 40 40 41 42 42 42 43 43 43 43 42
43 42 41 40 39 39 38 37 36 35 35 35 34 34 34 34 34 34 34 34 35 35 36 37 37 38 39 40 41 41 42 42 42 43 44 44 44 45 45 45 46 46 46
44 42 41 40 39 39 38 37 37 37 36 36 36 35 35 36 36 36 36 36 37 38 38 39 40 41 41 42 43 44 44 43 44 46 46 47 47 47 47 47 48 48 48
44 44 43 42 41 40 40 39 39 38 38 37 37 37 38 38 38 38 38 38 39 39 40 41 42 42 43 44 44 46 46 46 47 48 48 49 50 50 50 50 50 50 50
44 43 43 42 41 41 41 40 40 39 39 39 39 39 39 39 39 39 40 40 41 41 42 42 43 43 44 45 46 47 48 49 50 50 50 51 52 53 53 53 52 52 52
45 44 43 43 42 42 41 41 40 40 40 40 40 40 40 40 40 41 41 42 42 43 43 43 44 45 45 46 47 48 50 51 51 52 53 53 54 54 55 55 55 55 55
45 45 45 44 43 43 43 42 42 41 41 41 41 41 41 41 42 42 43 43 43 43 44 44 45 45 46 47 48 49 51 52 53 54 55 54 55 55 56 57 57 55 55
Wind_Direction
217 221 225 228 232 236 241 246 254 261 269 277 285 291 296 300 305 310 314 316 317 317 319 320 321 321 321 320 318 316 314 313 312 310 309 308 308 309 309 310 310 310 310
222 224 228 232 235 238 243 248 253 258 265 273 280 287 293 299 303 308 311 313 313 314 316 317 317 318 318 317 316 313 311 310 309 307 306 306 305 305 306 306 307 307 308
225 226 229 232 235 239 245 250 254 260 266 273 279 285 291 296 300 304 308 310 311 312 313 314 314 315 315 313 312 310 308 306 305 304 304 303 303 303 304 305 305 305 306
228 228 229 232 235 240 246 252 256 261 267 273 278 283 288 293 297 301 305 307 309 310 311 311 312 313 312 311 310 308 306 305 303 303 302 301 301 302 302 303 304 304 306
230 230 230 233 236 241 248 254 258 263 267 272 278 283 287 291 295 298 301 304 306 308 309 310 311 311 310 309 307 306 304 303 302 301 300 300 301 301 301 302 303 305 307
229 231 233 235 238 243 249 255 260 264 268 273 277 282 287 291 294 297 299 302 304 306 307 309 309 309 308 307 305 303 301 300 300 299 299 299 300 301 302 303 304 305 308
228 231 235 239 241 244 248 255 260 264 269 273 277 282 286 290 293 297 299 301 303 304 305 306 306 306 305 304 303 301 300 298 297 296 295 296 298 301 303 304 305 306 307
229 233 237 241 243 245 248 252 258 263 267 272 277 282 286 290 293 296 299 301 302 303 304 304 304 303 302 301 301 299 298 297 296 295 293 293 295 298 300 303 304 305 307
232 236 239 242 246 248 250 251 255 261 265 270 275 280 285 290 293 296 299 301 302 302 302 302 302 301 300 299 298 296 295 294 294 293 292 292 292 294 296 299 301 303 305
233 237 241 245 248 251 252 253 255 259 264 269 273 279 284 289 293 295 297 299 300 300 300 299 299 299 298 297 295 294 292 291 290 289 289 289 290 291 293 295 297 299 301
235 238 242 246 249 252 254 255 257 259 263 266 272 277 283 287 290 293 294 296 296 297 297 297 296 296 296 295 293 291 290 289 288 287 287 287 287 288 289 291 293 295 297
235 237 241 245 248 251 254 257 259 261 263 266 270 275 280 284 287 290 291 293 294 294 295 295 294 294 293 291 290 289 287 286 286 285 285 285 285 285 286 287 289 291 293
234 237 240 244 247 250 253 256 260 263 266 268 271 275 279 282 285 287 288 290 291 291 292 292 292 291 290 289 287 286 284 283 283 283 282 282 282 283 283 285 286 288 290
233 237 240 243 246 249 252 256 260 263 267 270 273 276 279 281 284 285 287 287 288 289 289 290 290 289 288 287 285 284 282 281 281 280 280 280 280 280 281 282 283 284 286
231 235 239 242 245 248 252 255 259 263 267 271 274 277 279 281 283 285 286 286 287 288 288 289 289 288 287 286 285 284 282 281 281 280 279 279 279 279 279 280 280 281 282
231 233 237 240 243 247 250 254 258 262 267 271 274 276 279 281 283 284 285 285 285 286 287 288 288 287 286 285 285 284 283 282 281 280 279 278 278 278 278 278 279 279 280
230 233 235 238 242 245 249 253 257 261 265 270 273 275 277 279 281 282 283 284 284 286 287 288 288 287 286 285 284 284 283 282 281 280 279 278 277 277 276 276 277 277 278
231 232 235 237 240 244 247 251 255 259 263 267 270 273 275 277 279 280 281 283 284 285 287 287 287 287 286 286 285 284 283 281 280 280 279 279 278 277 276 276 275 275 275
231 233 235 237 240 243 246 250 254 257 261 265 268 271 273 275 277 279 280 281 282 284 285 286 286 286 286 285 285 284 284 283 282 281 280 279 278 277 277 276 276 275 275
232 234 236 238 241 244 247 250 253 257 260 263 266 269 272 275 277 279 280 281 283 284 285 286 286 286 286 286 286 286 285 284 283 282 281 280 279 278 278 277 277 276 275
232 234 237 239 241 244 247 250 253 256 259 262 265 269 272 274 277 278 280 281 283 284 285 286 286 287 287 286 286 286 285 285 285 283 282 281 280 279 279 278 278 277 276
233 235 237 240 242 245 248 251 254 257 260 263 266 269 271 274 276 278 280 281 283 284 285 286 287 287 287 287 287 287 286 286 286 284 284 283 282 281 280 279 278 277 276
234 236 238 240 243 246 249 252 255 258 261 264 266 268 270 273 276 278 280 282 283 285 286 287 287 288 288 288 288 288 288 287 285 285 285 284 284 282 281 280 279 277 276
235 236 239 241 244 247 250 253 256 258 261 264 266 268 271 273 276 278 280 282 283 285 286 287 288 288 288 289 289 289 289 288 287 286 286 286 285 283 282 280 278 277 276
236 237 239 242 245 248 250 253 256 258 261 263 266 268 270 273 276 278 280 281 283 285 286 287 287 288 289 289 290 290 290 290 290 289 288 287 286 284 282 280 278 277 276
237 238 240 242 245 248 251 254 256 259 261 263 265 267 270 273 275 277 279 280 282 284 285 286 287 289 290 290 291 291 291 291 291 290 289 288 286 284 282 279 277 276 275
Height
5889 5890 5892 5893 5894 5895 5895 5896 5897 5898 5898 5899 5899 5900 5900 5900 5900 5900 5900 5900 5899 5899 5898 5898 5897 5897 5896 5895 5895 5894 5893 5892 5891 5890 5889 5887 5886 5885 5883 5882 5881 5879 5878
5888 5889 5891 5892 5893 5893 5894 5895 5896 5896 5897 5898 5898 5899 5899 5899 5899 5899 5899 5898 5898 5897 5897 5896 5896 5895 5894 5894 5893 5892 5891 5890 5889 5888 5886 5885 5884 5882 5881 5880 5878 5877 5875
5886 5887 5889 5890 5891 5892 5893 5894 5895 5895 5896 5897 5897 5897 5898 5898 5898 5898 5897 5897 5896 5896 5895 5894 5894 5893 5892 5892 5891 5890 5889 5888 5886 5885 5884 5883 5881 5880 5878 5877 5876 5874 5872
5884 5885 5887 5888 5889 5890 5891 5892 5893 5894 5895 5895 5896 5896 5896 5896 5896 5896 5896 5895 5895 5894 5893 5893 5892 5891 5890 5889 5888 5887 5886 5885 5884 5883 5881 5880 5878 5877 5876 5874 5873 5871 5870
5881 5883 5885 5886 5887 5889 5890 5891 5892 5893 5893 5894 5894 5895 5895 5895 5895 5894 5894 5894 5893 5892 5891 5891 5890 5889 5888 5887 5886 5885 5883 5882 5881 5880 5878 5877 5876 5874 5873 5872 5870 5869 5867
5878 5880 5882 5884 5885 5887 5888 5889 5890 5891 5892 5892 5893 5893 5893 5893 5893 5892 5892 5892 5891 5890 5889 5888 5887 5887 5886 5885 5883 5882 5881 5879 5878 5877 5876 5875 5873 5872 5870 5869 5868 5866 5865
5875 5877 5880 5881 5883 5885 5886 5887 5888 5889 5890 5891 5891 5891 5891 5891 5891 5890 5890 5889 5888 5888 5887 5886 5885 5884 5883 5882 5881 5880 5878 5877 5876 5874 5873 5872 5871 5869 5868 5866 5865 5864 5862
5872 5874 5877 5879 5881 5883 5884 5886 5886 5887 5888 5888 5889 5889 5889 5889 5888 5888 5887 5887 5886 5885 5884 5883 5882 5881 5880 5879 5878 5877 5875 5874 5873 5872 5870 5869 5868 5867 5865 5864 5862 5861 5859
5868 5871 5874 5876 5878 5880 5882 5883 5884 5885 5886 5886 5886 5887 5886 5886 5886 5885 5884 5884 5883 5882 5881 5880 5879 5878 5877 5876 5875 5874 5872 5871 5870 5869 5867 5866 5865 5863 5862 5861 5859 5858 5856
5864 5867 5870 5873 5875 5877 5879 5880 5882 5883 5883 5884 5884 5884 5884 5883 5883 5882 5881 5881 5880 5879 5878 5877 5876 5875 5874 5873 5872 5871 5869 5868 5866 5865 5864 5863 5862 5860 5859 5858 5856 5855 5853
5860 5864 5867 5869 5871 5874 5875 5877 5878 5879 5880 5881 5881 5881 5881 5880 5879 5879 5878 5877 5877 5876 5875 5874 5873 5872 5871 5870 5869 5867 5866 5864 5863 5862 5861 5859 5858 5857 5855 5854 5853 5851 5849
5856 5859 5862 5865 5868 5870 5872 5873 5875 5876 5877 5877 5878 5878 5877 5877 5876 5875 5875 5874 5873 5872 5871 5870 5869 5868 5867 5866 5865 5864 5862 5861 5860 5858 5857 5856 5854 5853 5851 5850 5849 5847 5846
5851 5854 5858 5861 5863 5866 5867 5869 5870 5872 5872 5873 5874 5874 5873 5873 5872 5872 5871 5870 5869 5868 5868 5867 5866 5864 5863 5862 5861 5860 5859 5857 5856 5854 5853 5852 5850 5849 5847 5846 5845 5843 5842
5846 5850 5853 5856 5859 5861 5863 5864 5866 5867 5868 5869 5869 5869 5869 5869 5868 5868 5867 5866 5865 5864 5863 5863 5862 5860 5859 5858 5857 5855 5854 5853 5851 5850 5849 5847 5846 5844 5842 5841 5839 5838 5837
5841 5844 5848 5851 5853 5856 5858 5860 5861 5862 5863 5864 5864 5865 5865 5864 5864 5863 5862 5861 5860 5860 5859 5858 5857 5856 5854 5853 5852 5850 5849 5848 5847 5845 5844 5842 5841 5839 5837 5836 5834 5832 5831
5835 5839 5842 5845 5848 5850 5853 5854 5856 5857 5858 5859 5859 5859 5860 5859 5859 5858 5858 5857 5856 5855 5854 5853 5852 5851 5849 5848 5846 5845 5844 5842 5841 5840 5838 5837 5835 5833 5831 5830 5828 5826 5825
5829 5832 5836 5839 5842 5845 5847 5849 5850 5852 5853 5853 5854 5854 5854 5854 5854 5853 5853 5852 5850 5849 5848 5847 5846 5845 5843 5842 5841 5839 5838 5836 5835 5833 5832 5830 5828 5826 5825 5823 5821 5820 5818
5822 5826 5830 5833 5836 5839 5841 5843 5845 5846 5847 5848 5848 5848 5848 5848 5848 5848 5847 5846 5845 5844 5843 5841 5840 5838 5837 5835 5834 5832 5831 5829 5828 5826 5825 5822 5821 5819 5817 5816 5814 5812 5810
5815 5819 5823 5826 5830 5832 5835 5837 5839 5840 5841 5842 5842 5842 5842 5842 5842 5842 5841 5840 5839 5838 5837 5835 5834 5832 5830 5828 5826 5825 5823 5822 5820 5819 5817 5814 5812 5810 5809 5807 5806 5804 5802
5808 5812 5816 5819 5822 5825 5828 5830 5832 5834 5835 5835 5836 5836 5836 5836 5835 5835 5834 5833 5832 5831 5830 5828 5826 5824 5823 5820 5818 5817 5815 5813 5811 5810 5807 5805 5803 5801 5799 5798 5796 5794 5793
5801 5805 5809 5812 5815 5818 5821 5823 5825 5827 5827 5828 5829 5829 5829 5828 5828 5827 5827 5826 5824 5823 5822 5820 5818 5816 5814 5811 5809 5808 5806 5804 5802 5800 5797 5796 5794 5791 5789 5787 5786 5784 5782
5793 5797 5801 5804 5807 5810 5813 5815 5817 5819 5820 5821 5822 5822 5821 5821 5820 5819 5819 5818 5816 5815 5813 5811 5809 5807 5805 5802 5800 5797 5796 5795 5792 5789 5787 5785 5783 5781 5779 5777 5774 5773 5771
5785 5789 5793 5796 5799 5802 5805 5807 5809 5811 5812 5813 5814 5813 5813 5812 5812 5811 5810 5809 5808 5806 5805 5803 5800 5798 5796 5793 5790 5787 5785 5784 5782 5779 5776 5773 5771 5769 5767 5765 5762 5761 5759
5777 5781 5785 5788 5791 5794 5797 5799 5801 5803 5804 5805 5805 5805 5804 5804 5803 5802 5801 5800 5799 5797 5795 5793 5791 5788 5785 5783 5780 5777 5774 5772 5769 5768 5766 5762 5759 5756 5754 5752 5749 5747 5745
5768 5772 5776 5780 5783 5786 5788 5790 5792 5794 5795 5796 5796 5796 5796 5795 5794 5793 5792 5791 5789 5787 5785 5783 5781 5778 5775 5772 5769 5766 5762 5759 5756 5753 5752 5750 5746 5742 5739 5737 5735 5733 5731
5760 5764 5767 5771 5774 5777 5779 5781 5783 5785 5786 5787 5787 5787 5787 5786 5785 5784 5783 5781 5780 5778 5776 5773 5771 5768 5765 5762 5759 5755 5751 5748 5744 5740 5737 5735 5731 5728 5724 5721 5719 5718 5716